Location: Azul
(36.7830°S, 59.8500°W)
Time: 23:06:38
(UTC-03:00)

FO-29 - Pass Details

Date: 23 October 2021
Orbit: 799 x 1322 km, 98.5° (Epoch: 28 November)

Event Time Altitude Azimuth Distance (km) Brightness Sun altitude
Rises 23:17:42 0° 177° (S) 4,054 13.5 -37.4°
Reaches altitude 10° 23:20:27 10° 185° (S) 3,154 12.8 -37.6°
Maximum altitude 23:26:57 36° 247° (WSW) 1,923 11.2 -38.2°
Enters shadow 23:29:08 30° 278° (W) 2,126 11.2 -38.4°
